Torna al catalogo

STARLINK-3993

AttivoComunicazioniVLEO
NORAD 52692·PAYLOAD·🇺🇸 United States

Lanciato May 18, 2022 da Cape Canaveral Space Force Station

Loading…

Prossimi Passaggi (prossime 24 ore)

TLE

AggiornatoSource: CelesTrak SupGP

Epoca: Sep 14, 2026, 20:42 UTC

1 52692C 22053AN  26257.86298611  .00629110  00000+0  25287-1 0  2579
2 52692  53.1602  13.4023 0001024  74.8380 151.0882 15.24084582    18

Traccia STARLINK-3993 in tempo reale con AllMySat

Download on the App Store